Location: ???? ?????????
(31.1304°N, 31.7111°E)
Time: 16:45:15
(UTC+00:00)

Cosmos 2058 - Pass Details

Date: 29 October 2020
Orbit: 562 x 583 km, 82.5° (Epoch: 29 November)

Event Time Altitude Azimuth Distance (km) Brightness Sun altitude
Rises 15:57:27 0° 6° (N) 2,756 6.2 -11.4°
Reaches altitude 10° 15:59:50 10° 17° (NNE) 1,857 5.3 -11.9°
Maximum altitude 16:03:27 30° 80° (E) 1,017 3.6 -12.7°
Drops below altitude 10° 16:07:04 10° 142° (SE) 1,853 5.2 -13.4°
Sets 16:09:26 0° 153° (SSE) 2,749 6.2 -13.9°
